Location: North Runcton
(52.7000°N, 0.4333°E)
Time: 15:54:55
(UTC+00:00)

Cosmos 2221 - Pass Details

Date: 19 May 2025
Orbit: 572 x 593 km, 82.5° (Epoch: 13 June)

Event Time Altitude Azimuth Distance (km) Brightness Sun altitude
Exits shadow 21:37:36 15° 166° (SSE) 1,573 4.1 -11.5°
Maximum altitude 21:40:49 50° 95° (E) 741 2.7 -11.7°
Drops below altitude 10° 21:44:52 10° 20° (NNE) 1,897 5.6 -12.0°
Sets 21:47:06 0° 15° (NNE) 2,798 6.6 -12.2°
